Location: Cortijada Las Cuevas
(37.1865°N, 2.8951°W)
Time: 14:32:18
(UTC+00:00)

Daily predictions for brighter satellites

Satellite Brightness Start Highest point End
(mag) Time Altitude Azimuth Time Altitude Azimuth Time Altitude Azimuth
SJ-6B 2.8 20:00:48 10° SSE 20:04:44 82° ENE 20:08:47 10° N
MOS 1 Rocket 3.7 20:00:08 10° N 20:04:55 75° WNW 20:09:58 10° SSW
Cosmos 2315 Rocket 4.2 20:01:25 10° N 20:07:46 82° W 20:14:07 10° S
Cosmos 1461 3.7 20:09:05 10° NNW 20:13:40 47° NE 20:18:13 10° SE
Cosmos 1455 4.1 20:11:50 10° NE 20:14:14 16° ENE 20:16:39 10° ESE
USA 229 4.5 20:09:25 10° NW 20:16:39 58° WSW 20:24:08 10° SSE
COSMOS 2428 4.4 20:15:58 10° ESE 20:18:19 13° E 20:20:41 10° ENE
Geosat 4.4 20:15:04 10° SE 20:19:53 50° ENE 20:24:45 10° NNW
Cosmos 1812 Rocket 4.4 20:20:45 10° NNE 20:24:40 33° ENE 20:28:10 12° SE
Delta 2 Rocket 2.8 20:21:19 10° WSW 20:24:45 63° S 20:28:03 10° E
Cosmos 1602 Rocket 3.6 20:22:10 10° S 20:26:28 60° E 20:30:51 10° NNE
NOSS 3-1 (A) 4.5 20:18:58 10° NW 20:26:51 69° WSW 20:35:38 10° SSE
Cosmos 2285 Rocket 4.5 20:20:46 10° NNW 20:26:57 62° WSW 20:33:08 10° S
Cosmos 1356 Rocket 4.0 20:23:36 10° NNW 20:27:49 60° W 20:31:55 10° S
CZ-2C R/B 3.9 20:24:15 10° N 20:29:02 83° WNW 20:33:48 10° SSW
Atlas Centaur 2 2.7 20:27:02 10° WSW 20:32:15 44° S 20:38:47 10° ESE
Cosmos 2263 Rocket 2.6 20:28:34 10° NNW 20:34:05 63° WSW 20:39:33 10° S
Cosmos 2219 Rocket 3.4 20:30:39 12° SE 20:34:12 21° E 20:38:12 10° NE
Nadezhda 1 Rocket 4.4 20:29:22 10° N 20:35:32 47° E 20:41:01 13° SSE
Cosmos 2360 Rocket 2.2 20:30:12 10° S 20:35:47 68° ESE 20:41:24 10° NNE
OFEQ 5 4.3 20:36:31 12° E 20:38:58 76° S 20:41:37 10° W
Meteor 2-16 Rocket 4.5 20:33:15 10° S 20:39:19 87° W 20:45:26 10° N
FALCON 9 R/B 1.6 20:38:15 10° WSW 20:40:27 24° SSW 20:41:14 19° SSE
DELTA 2 R/B (1) 4.2 20:35:34 10° SSW 20:40:28 32° SSE 20:45:24 10° E
Meteor 2-1 Rocket 4.4 20:35:16 10° N 20:41:05 67° E 20:46:38 12° SSE
BREEZE-M (TANK) 4.4 20:42:02 16° SE 20:43:06 18° ESE 20:48:04 10° ENE
Cosmos 2333 Rocket 3.1 20:39:21 11° SSE 20:43:52 28° ESE 20:48:37 10° NE
OAO 1 Rocket 4.4 20:42:17 10° W 20:47:35 71° S 20:52:29 12° E
Resurs 01 Rocket 1.6 20:45:41 13° SSE 20:49:35 83° E 20:54:01 10° N
Cosmos 1818 3.7 20:45:35 10° SSW 20:51:00 80° WNW 20:56:28 10° NNE
Cosmos 773 Rocket 4.5 20:49:14 11° S 20:53:59 40° ESE 20:58:55 10° NNE
SL-16 R/B 4.0 20:49:39 10° SW 20:54:47 35° WNW 20:59:58 10° N
CZ-2C R/B 4.1 20:52:10 10° N 20:57:07 38° WNW 21:01:56 10° SW
Cosmos-2242 3.9 20:53:17 10° NNE 20:57:13 33° ENE 20:59:06 23° ESE
ERS-1 Rocket 4.3 20:56:51 17° ESE 20:59:19 25° ENE 21:03:23 10° NNE
GEOS 3 Rocket 3.7 21:01:42 10° NNE 21:07:08 87° WNW 21:12:30 10° SW
ATLAS 5 CENTAUR R/B 2.2 21:03:58 10° SW 21:07:55 54° NW 21:12:16 10° NNE
USA 245 3.2 21:08:35 36° ESE 21:09:30 49° ENE 21:13:09 10° N
Cosmos 2278 Rocket 4.4 21:08:08 10° NNE 21:09:45 11° NE 21:11:23 10° ENE
USA 215 3.2 21:04:07 10° NE 21:10:39 71° SE 21:17:09 10° SW
Cosmos 1758 Rocket 3.6 21:07:51 12° S 21:11:57 88° W 21:16:28 10° N
Cosmos 1844 Rocket 2.9 21:09:57 10° NNW 21:15:26 57° ENE 21:18:16 28° SE
SPOT 5 4.0 21:13:56 23° ESE 21:15:55 31° ENE 21:20:10 10° N
Cosmos 1400 Rocket 3.0 21:12:39 10° N 21:16:31 50° ENE 21:17:41 36° SE
Spot 2 Rocket 3.4 21:16:45 26° SSE 21:19:37 77° ENE 21:24:44 10° N
Meteor 2-10 Rocket 3.8 21:14:39 10° NNW 21:19:45 68° W 21:23:39 18° S
OAO 3 Rocket 3.3 21:17:08 10° W 21:21:58 59° S 21:23:57 33° SE
Landsat 7 3.7 21:21:48 30° SSE 21:24:09 79° ENE 21:28:56 10° N
BREEZE M DEB (TANK) 4.2 21:25:37 10° NNW 21:27:02 14° NNE 21:27:39 13° NE
Cosmos 2181 Rocket 4.4 21:25:36 10° N 21:31:42 48° E 21:34:15 32° SE
SPOT 1/Viking Rocket 3.5 21:31:53 33° SSE 21:34:13 80° ENE 21:39:24 10° N
Cosmos 1953 Rocket 3.4 21:33:11 33° S 21:35:05 88° E 21:39:26 10° N
OAO 2 Rocket 3.3 21:41:13 10° W 21:46:30 71° S 21:48:29 38° ESE
SAR-Lupe-2 4.2 21:43:06 10° N 21:46:36 54° WNW 21:47:57 32° SW
Cosmos 1455 3.9 21:46:33 10° NNW 21:49:52 28° W 21:51:42 19° SW
Cosmos 1980 4.2 21:56:55 39° ESE 21:57:00 39° ESE 22:02:12 10° NE
ATLAS CENTAUR R/B 2.5 21:55:19 10° N 21:58:26 26° NE 21:58:26 26° NE
Cosmos 967 Rocket 4.4 21:55:33 29° S 21:58:55 66° ESE 22:05:21 10° NE
COSMOS 2428 2.8 21:57:26 17° SSW 22:01:49 74° WNW 22:07:30 10° NNE
Alouette 2 Rocket 4.3 21:57:52 10° NNW 22:01:55 55° W 22:03:55 34° SSW
NOSS 0 Rocket 3.9 22:07:31 46° SSE 22:09:12 64° ESE 22:15:17 10° NNE
Cosmos 1844 4.0 22:04:06 10° NNW 22:09:45 62° WSW 22:11:25 43° SSW
Cosmos 1869 4.2 22:06:12 10° N 22:09:22 37° NE 22:09:22 37° NE
CARTOSAT-1 3.8 22:10:04 54° SW 22:10:38 60° W 22:14:54 10° NNW
Terra 1.7 22:10:34 67° SE 22:11:08 79° ENE 22:15:53 10° N
Cosmos 2237 Rocket 2.3 22:14:58 52° ESE 22:15:12 53° ESE 22:20:44 10° NNE
Meteor 1-27 4.2 22:10:51 10° N 22:16:38 85° W 22:18:05 53° S
Cosmos 2344 3.7 22:16:02 43° SSE 22:17:33 48° ESE 22:24:46 10° NE
Cosmos 2219 Rocket 3.0 22:12:21 10° SW 22:17:43 48° WNW 22:23:07 10° N
BREEZE-M DEB (TANK) 3.5 22:15:19 10° WNW 22:18:38 53° SW 22:18:38 53° SW
Atlas Centaur 2 2.9 22:15:11 10° WSW 22:21:12 44° S 22:21:21 44° S
BREEZE-M R/B 3.9 22:12:34 10° NW 22:22:13 72° NNE 22:23:36 50° E
DELTA 2 R/B (1) 3.4 22:20:59 10° WSW 22:26:35 87° SSE 22:30:02 24° ENE
Cosmos 2333 Rocket 3.5 22:22:41 10° SW 22:27:54 37° WNW 22:33:12 10° N
Cosmos 2184 Rocket 3.9 22:27:10 50° S 22:28:57 87° W 22:35:16 10° N
Cosmos 1315 Rocket 3.4 22:26:08 10° NNW 22:29:55 55° WNW 22:29:55 55° WNW
Thor Agena Rocket 4.0 22:29:06 10° NNE 22:33:18 44° ENE 22:33:18 44° ENE
Meteor 2-2 Rocket 4.1 22:29:27 10° N 22:35:17 79° E 22:35:55 69° SE
ERS-1 Rocket 4.1 22:36:51 31° WSW 22:37:54 34° W 22:42:29 10° NNW
Cosmos 2221 2.7 22:35:28 10° N 22:39:20 68° NNW 22:39:20 68° NNW
Cosmos 1892 3.8 22:41:59 41° N 22:41:59 41° N 22:44:33 10° N
ATLAS 2AS CENTAUR R/B 3.8 22:36:40 10° NNW 22:43:33 38° NE 22:46:25 27° E
Cosmos 2112 Rocket 3.9 22:48:24 81° E 22:48:24 81° E 22:53:39 10° NNE
MOS 1-B Rocket 4.2 22:41:53 10° NNE 22:49:12 61° E 22:49:56 58° SE
Cosmos 158 Rocket 3.9 22:52:56 74° N 22:52:56 74° N 22:57:27 10° NNE
SPOT 5 4.4 22:53:10 26° WSW 22:53:54 27° W 22:58:04 10° NW
Cosmos 2278 Rocket 2.1 22:49:06 10° NNW 22:54:47 78° ENE 22:54:59 76° E
Spot 4 4.3 22:59:07 52° NE 22:59:07 52° NE 23:03:15 10° N
SL-16 R/B 3.0 23:00:46 38° ENE 23:00:46 38° ENE 23:04:55 10° NE
Cosmos 2058 4.0 23:01:10 43° NW 23:01:10 43° NW 23:04:30 10° N
Cosmos 2056 Rocket 4.2 23:02:50 10° N 23:07:58 44° ENE 23:07:58 44° ENE
Cosmos 2154 Rocket 4.1 23:07:50 56° SW 23:08:51 65° W 23:15:02 10° N
Cosmos 2341 Rocket 3.9 23:11:46 71° ESE 23:11:56 72° E 23:18:08 10° N
Nadezhda 3 Rocket 3.9 23:06:58 10° N 23:13:21 78° W 23:13:54 72° SW
Cosmos 1680 Rocket 4.3 23:15:58 43° W 23:16:43 46° WNW 23:21:50 10° N
Cosmos 2151 4.1 23:23:52 41° N 23:23:52 41° N 23:26:44 10° N
USA 267 3.2 23:21:24 60° ESE 23:22:41 77° NE 23:29:14 10° NW
SL-8 Rocket 3.9 23:30:59 75° E 23:30:59 75° E 23:37:03 10° N
Cosmos 1825 4.2 23:32:56 27° NNW 23:32:56 27° NNW 23:34:53 10° N
ALOS 2 3.7 23:35:27 42° NNE 23:35:27 42° NNE 23:38:28 10° N
ATLAS CENTAUR R/B 4.1 23:34:35 10° WNW 23:34:36 10° WNW 23:34:36 10° WNW
Meteor 2-12 Rocket 4.5 23:37:27 68° ENE 23:37:27 68° ENE 23:43:17 10° NNE
Cosmos 1151 Rocket 4.4 23:37:22 10° N 23:40:03 34° NNE 23:40:03 34° NNE
Cosmos 44 4.4 23:43:37 37° N 23:43:37 37° N 23:46:33 10° NNE
Cosmos 2369 Rocket 4.2 23:43:05 10° N 23:47:00 19° NE 23:48:50 16° E
GP-B 4.2 23:45:52 10° N 23:48:50 42° N 23:48:50 42° N
Cosmos 371 Rocket 4.3 23:46:38 10° N 23:50:25 41° NE 23:50:25 41° NE
